Weather History for Quillayute, WA

Change the Weather History Date:

Wednesday, April 16, 2014

  Actual Average Record
Temperature  
Mean Temperature 50 °F 47 °F  
Max Temperature 52 °F 55 °F 82 °F (1999)
Min Temperature 48 °F 38 °F 29 °F (1970)
Degree Days  
Heating Degree Days 15 18  
Month to date heating degree days 276 306  
Since 1 July heating degree days 4056 4799  
Cooling Degree Days 0 0  
Month to date cooling degree days 0 0  
Year to date cooling degree days 0 0  
Moisture  
Dew Point 49 °F    
Average Humidity 97    
Maximum Humidity 100    
Minimum Humidity 93    
Precipitation  
Precipitation 1.14 in 0.27 in 1.78 in (1992)
Month to date precipitation 3.96 4.53  
Year to date precipitation 42.34 40.32  
Sea Level Pressure  
Sea Level Pressure 29.98 in    
Wind  
Wind Speed 6 mph (SSW)    
Max Wind Speed 13 mph    
Max Gust Speed 18 mph    
Visibility 3 miles    
Events Fog , Rain    
T = Trace of Precipitation, MM = Missing Value Source: NWS Daily Summary

Daily Weather History Graph

Daily Weather History Graph

Search for Another Location

Airport:

Trip Planner

Search our weather history database for the weather conditions in past years. The results will help you decide how hot, cold, wet, or windy it might be!

Date:

Astronomy

Apr. 16, 2014 Rise Set
Actual Time 6:26 AM PDT 8:10 PM PDT
Civil Twilight 5:54 AM PDT 8:42 PM PDT
Nautical Twilight 5:14 AM PDT 9:23 PM PDT
Astronomical Twilight 4:30 AM PDT 10:07 PM PDT
Moon 10:07 PM PDT (4/16) 7:13 AM PDT (4/16)
Length of Visible Light 14h 48m
Length of Day
13h 43m
Full, 98% of the Moon is Illuminated
Apr 16
Full
Apr 22
Last Quarter
Apr 28
New
May 6
First Quarter
May 14
Full

Hourly Weather History & Observations

Time (PDT) Temp. Dew Point Humidity Pressure Visibility Wind Dir Wind Speed Gust Speed Precip Events Conditions
12:01 AM 48.0 °F 48.0 °F 100% 30.06 in 3.0 mi SW 6.9 mph - 0.00 in Rain Light Rain
12:15 AM 48.0 °F 48.0 °F 100% 30.06 in 2.5 mi SSW 4.6 mph - 0.01 in Rain Light Rain
12:35 AM 48.0 °F 48.0 °F 100% 30.06 in 3.0 mi SW 8.1 mph - 0.03 in Rain Light Rain
12:53 AM 48.0 °F 46.9 °F 96% 30.06 in 3.0 mi SSW 4.6 mph - 0.04 in Rain Rain
1:04 AM 48.0 °F 46.9 °F 96% 30.05 in 4.0 mi SSW 8.1 mph - 0.02 in Rain Light Rain
1:17 AM 48.0 °F 46.9 °F 96% 30.05 in 4.0 mi SW 6.9 mph - 0.03 in Rain Light Rain
1:53 AM 48.0 °F 46.9 °F 96% 30.05 in 3.0 mi SSW 6.9 mph - 0.05 in Rain Light Rain
2:32 AM 48.0 °F 48.0 °F 100% 30.04 in 2.5 mi SW 8.1 mph - 0.03 in Rain Light Rain
2:51 AM 48.2 °F 48.2 °F 100% 30.03 in 3.0 mi SW 6.9 mph - 0.05 in Rain Light Rain
2:53 AM 48.0 °F 48.0 °F 100% 30.04 in 4.0 mi SW 6.9 mph - 0.05 in Rain Light Rain
3:53 AM 48.0 °F 48.0 °F 100% 30.03 in 3.0 mi SSW 5.8 mph - 0.03 in Rain Light Rain
4:53 AM 48.0 °F 48.0 °F 100% 30.03 in 4.0 mi SSW 5.8 mph - 0.02 in Rain Light Rain
5:43 AM 48.0 °F 48.0 °F 100% 30.02 in 3.0 mi South 5.8 mph - 0.01 in Rain Light Rain
5:51 AM 48.2 °F 46.4 °F 93% 30.02 in 3.0 mi SSW 4.6 mph - 0.02 in Rain Light Rain
5:53 AM 48.0 °F 46.9 °F 96% 30.02 in 3.0 mi SSW 5.8 mph - 0.02 in Rain Light Rain
6:03 AM 48.0 °F 46.9 °F 96% 30.02 in 3.0 mi South 5.8 mph - 0.00 in Rain Light Rain
6:13 AM 48.0 °F 46.9 °F 96% 30.02 in 4.0 mi Variable 3.5 mph - 0.00 in Rain Light Rain
6:32 AM 48.0 °F 46.9 °F 96% 30.02 in 4.0 mi SSE 5.8 mph - 0.01 in Rain Light Rain
6:53 AM 48.0 °F 46.9 °F 96% 30.01 in 1.8 mi South 5.8 mph - 0.03 in Rain Light Rain
7:00 AM 48.0 °F 46.9 °F 96% 30.01 in 2.0 mi Variable 5.8 mph - 0.00 in Rain Light Rain
7:08 AM 48.0 °F 46.9 °F 96% 30.01 in 1.5 mi Variable 4.6 mph - 0.00 in Rain Light Rain
7:19 AM 48.0 °F 46.9 °F 96% 30.01 in 2.0 mi SSE 4.6 mph - 0.01 in Rain Light Rain
7:29 AM 48.0 °F 46.9 °F 96% 30.00 in 1.8 mi Variable 4.6 mph - 0.01 in Rain Light Rain
7:40 AM 48.0 °F 46.9 °F 96% 30.01 in 1.2 mi Variable 4.6 mph - 0.02 in Rain Light Rain
7:53 AM 48.0 °F 46.9 °F 96% 30.01 in 0.8 mi SSE 6.9 mph - 0.03 in Rain Light Rain
8:15 AM 48.0 °F 46.9 °F 96% 30.00 in 0.8 mi SSE 6.9 mph - 0.04 in Rain Light Rain
8:53 AM 48.0 °F 48.0 °F 100% 30.00 in 0.8 mi Variable 6.9 mph - 0.07 in Rain Light Rain
9:16 AM 48.9 °F 48.0 °F 97% 30.00 in 1.0 mi Variable 5.8 mph - 0.02 in Rain Light Rain
9:26 AM 48.9 °F 48.0 °F 97% 30.00 in 0.8 mi South 9.2 mph - 0.03 in Rain Light Rain
9:53 AM 48.9 °F 48.9 °F 100% 30.00 in 0.5 mi Variable 5.8 mph - 0.07 in Fog , Rain Rain
10:10 AM 48.9 °F 48.9 °F 100% 30.00 in 0.5 mi South 6.9 mph - 0.04 in Fog , Rain Light Rain
10:53 AM 48.9 °F 48.9 °F 100% 30.00 in 0.5 mi Variable 5.8 mph - 0.13 in Fog , Rain Light Rain
11:53 AM 50.0 °F 48.9 °F 96% 30.01 in 0.8 mi South 8.1 mph - 0.07 in Rain Light Rain
12:28 PM 50.0 °F 50.0 °F 100% 30.00 in 1.0 mi South 9.2 mph - 0.04 in Rain Light Rain
12:53 PM 51.1 °F 51.1 °F 100% 30.00 in 0.8 mi South 6.9 mph - 0.05 in Rain Light Rain
1:22 PM 52.0 °F 51.1 °F 97% 30.00 in 1.5 mi SSW 8.1 mph - 0.01 in Rain Light Rain
1:27 PM 51.1 °F 51.1 °F 100% 30.00 in 3.0 mi SSW 8.1 mph - 0.01 in Rain Light Rain
1:53 PM 52.0 °F 51.1 °F 97% 30.01 in 6.0 mi South 6.9 mph - 0.02 in Rain Light Rain
2:53 PM 51.1 °F 51.1 °F 100% 30.00 in 4.0 mi SSW 8.1 mph - 0.02 in Rain Light Rain
2:58 PM 51.1 °F 51.1 °F 100% 30.00 in 1.8 mi SW 6.9 mph - 0.00 in   Overcast
3:07 PM 51.1 °F 51.1 °F 100% 30.00 in 1.0 mi SSW 6.9 mph - 0.00 in Rain Light Rain
3:14 PM 51.1 °F 51.1 °F 100% 30.00 in 2.0 mi SSW 6.9 mph - 0.00 in Rain Light Rain
3:22 PM 51.1 °F 51.1 °F 100% 30.00 in 5.0 mi SW 6.9 mph - 0.00 in Rain Light Rain
3:31 PM 52.0 °F 51.1 °F 97% 30.00 in 6.0 mi SSW 5.8 mph - 0.00 in Rain Light Rain
3:53 PM 51.1 °F 51.1 °F 100% 30.00 in 5.0 mi SSW 5.8 mph - 0.00 in Rain Light Rain
4:06 PM 51.1 °F 51.1 °F 100% 29.99 in 4.0 mi SSW 5.8 mph - 0.01 in Rain Light Rain
4:48 PM 51.8 °F 51.8 °F 100% 29.98 in 4.0 mi SSW 4.6 mph - 0.02 in Rain Light Rain
4:53 PM 52.0 °F 51.1 °F 97% 29.98 in 4.0 mi SSW 5.8 mph - 0.02 in Rain Light Rain
5:53 PM 51.1 °F 51.1 °F 100% 29.96 in 5.0 mi South 4.6 mph - 0.01 in Rain Light Rain
6:31 PM 51.1 °F 50.0 °F 96% 29.95 in 3.0 mi South 8.1 mph - 0.00 in Rain Light Rain
6:53 PM 51.1 °F 50.0 °F 96% 29.95 in 2.5 mi Variable 4.6 mph - 0.01 in Rain Light Rain
7:31 PM 50.0 °F 50.0 °F 100% 29.93 in 2.5 mi Variable 4.6 mph - 0.03 in Rain Light Rain
7:53 PM 50.0 °F 50.0 °F 100% 29.93 in 2.5 mi South 3.5 mph - 0.05 in Rain Light Rain
8:08 PM 50.0 °F 50.0 °F 100% 29.92 in 3.0 mi Variable 4.6 mph - 0.02 in Rain Light Rain
8:32 PM 50.0 °F 50.0 °F 100% 29.92 in 4.0 mi South 5.8 mph - 0.05 in Rain Rain
8:53 PM 50.0 °F 50.0 °F 100% 29.92 in 4.0 mi South 4.6 mph - 0.08 in Rain Rain
9:08 PM 50.0 °F 50.0 °F 100% 29.92 in 3.0 mi South 8.1 mph - 0.02 in Rain Rain
9:29 PM 50.0 °F 50.0 °F 100% 29.92 in 2.5 mi South 6.9 mph - 0.06 in Rain Rain
9:40 PM 50.0 °F 50.0 °F 100% 29.91 in 3.0 mi South 8.1 mph - 0.08 in Rain Rain
9:49 PM 50.0 °F 50.0 °F 100% 29.91 in 2.5 mi South 8.1 mph - 0.10 in Rain Light Rain
9:53 PM 50.0 °F 50.0 °F 100% 29.91 in 2.5 mi South 8.1 mph - 0.11 in Rain Rain
10:05 PM 50.0 °F 50.0 °F 100% 29.91 in 1.8 mi South 8.1 mph - 0.02 in Rain Rain
10:32 PM 50.0 °F 50.0 °F 100% 29.90 in 2.0 mi SSW 6.9 mph - 0.06 in Rain Rain
10:40 PM 50.0 °F 50.0 °F 100% 29.90 in 1.8 mi SSW 6.9 mph - 0.07 in Rain Rain
10:53 PM 50.0 °F 50.0 °F 100% 29.90 in 2.5 mi SSW 8.1 mph - 0.10 in Rain Rain
11:06 PM 50.0 °F 50.0 °F 100% 29.90 in 3.0 mi SW 12.7 mph 18.4 mph 0.02 in Rain Rain
11:20 PM 50.0 °F 50.0 °F 100% 29.90 in 2.5 mi SW 8.1 mph - 0.04 in Rain Rain
11:29 PM 50.0 °F 50.0 °F 100% 29.90 in 3.0 mi SSW 10.4 mph - 0.05 in Rain Rain
11:51 PM 50.0 °F 50.0 °F 100% 29.91 in 4.0 mi SSW 6.9 mph - 0.07 in Rain Light Rain
11:53 PM 50.0 °F 50.0 °F 100% 29.91 in 4.0 mi SSW 8.1 mph - 0.07 in Rain Light Rain